Location: Eaton Estates
(41.3089°N, 82.0057°W)
Time: 13:19:02
(UTC+00:00)

Cosmos 1634 Rocket - Pass Details

Date: 17 June 2021
Orbit: 960 x 991 km, 82.9° (Epoch: 26 July)

Event Time Altitude Azimuth Distance (km) Brightness Sun altitude
Rises 05:35:16 0° 355° (N) 3,703 8.4 -25.3°
Reaches altitude 10° 05:37:50 10° 359° (N) 2,754 7.4 -25.3°
Maximum altitude 05:44:06 63° 80° (E) 1,095 4.2 -25.2°
Enters shadow 05:45:50 46° 138° (SE) 1,298 4.3 -25.2°
